Torna al catalogo

FENGYUN 1C DEB

AttivoPO
NORAD 30831·DEBRIS·🇨🇳 China

Lanciato May 10, 1999 da Taiyuan Satellite Launch Center

Loading…

Prossimi Passaggi (prossime 24 ore)

TLE

AggiornatoSource: Space-Track

Epoca: Sep 13, 2026, 07:20 UTC

1 30831U 99025AVR 26256.30623569  .00000512  00000-0  20815-3 0  9992
2 30831  99.3555  74.7212 0054320 323.5295  36.2190 14.31629038691788

Traccia FENGYUN 1C DEB in tempo reale con AllMySat

Download on the App Store